Airfield :
LOGIN :

Register | Disclaimer

   EN    FR    IT 

 










Legend :    VFR   Marginal VFR   IFR   Intensive IFR   Very Intensive IFR
Visi :
Ceiling :
>= 8 km
>= 3000ft
5 to 8 km
1000 to 3000 ft
1500m to 5 km
500 to 1000 ft
800 to 1500m
200 to 500 ft
< 800m
< 200 ft
Symbols :   Thunderstorms  Fog  Heavy snow  Heavy precipitations  Wind > 20 kt
SIGMETs :     Misc.  Thunderstorms  Icing  Turbulence  Mountain Waves  Volcanic Ashes







- Airport Elevation : 1345 ft
- IATA code : FRZ


ETHF - Fritzlar

CURRENT METAR :
  • 130620Z 05005KT 9999 BKN022 00/M03 Q1022 WHT BLU+ TEMPO WHT

EXPIRED METARs :
  • 130520Z 07004KT 9999 BKN020 00/M03 Q1022 WHT BLU+ TEMPO WHT
  • 130420Z 05003KT 9999 SCT020 00/M03 Q1022 BLU+

TAF TAF ETHF
Valid from the 13 at 06:00 until the 13 at 15:00 UTC


130517Z 1306/1315 08005KT 9999 NSW SCT025
TEMPO 1306/1315 07005KT 9999 NSW BKN020
No reported NOTAMs for that airfield.



MET'MAP, your aeronautical weather chart ! - Copyright ORBIFLY December 2007 - Disclaimer

ORBIFLY MET'MAP TEAM :

Programming & Development : Alexandra Zaïnal
Concept & Development : Baudouin d'Aumeries
Co-Development & Prog : Marc-Olivier Méhu
Technical & hardware support : Manuel Goepfert

Contact : metmap@orbifly.com




SOURCES & CREDITS :

   NOAA